User: anonymous   Login
Location: Volkssternwarte_EN
(51.3230°N, 7.4010°E)
Time: 14:49:01
(UTC+02:00)
Language:

ISS - Orbit

View from above orbital plane
View from above orbital plane
View from above satellite
View from above satellite

Ground track
Ground track

The orbit data is extracted from the following two-line orbital elements,

1 25544U 98067A   21263.28669914  .00003142  00000-0  66459-4 0  9993
2 25544  51.6436 232.5048 0003357  32.0581 110.2065 15.48413394303337
Epoch (UTC): 20 September 2021 06:52:50
Eccentricity: 0.0003357
inclination: 51.6436°
perigee height: 419 km
apogee height: 423 km
right ascension of ascending node: 232.5048°
argument of perigee: 32.0581°
revolutions per day: 15.48413394
mean anomaly at epoch: 110.2065°
orbit number at epoch: 30333

The dashed part of the orbit path shows where the satellite is in the earth's shadow,  

DLR